TimeMST,TemperatureF,Dew PointF,Humidity,Sea Level PressureIn,VisibilityMPH,Wind Direction,Wind SpeedMPH,Gust SpeedMPH,PrecipitationIn,Events,Conditions,WindDirDegrees,DateUTC
12:56 AM,28.9,28.9,100,29.59,-9999.0,South,18.4,-,N/A,,Unknown,170,2013-02-21 07:56:00
1:56 AM,28.9,28.0,96,29.62,-9999.0,SSE,18.4,-,N/A,,Unknown,150,2013-02-21 08:56:00
2:56 AM,28.0,27.0,96,29.61,-9999.0,SE,13.8,-,N/A,,Unknown,140,2013-02-21 09:56:00
3:56 AM,27.0,26.1,96,29.60,-9999.0,SSE,10.4,-,N/A,,Unknown,150,2013-02-21 10:56:00
4:56 AM,27.0,26.1,96,29.60,-9999.0,Calm,Calm,-,N/A,,Unknown,0,2013-02-21 11:56:00
5:56 AM,27.0,26.1,96,29.61,-9999.0,East,5.8,-,N/A,,Unknown,100,2013-02-21 12:56:00
6:56 AM,27.0,26.1,96,29.61,-9999.0,East,8.1,-,N/A,,Unknown,90,2013-02-21 13:56:00
7:56 AM,26.1,25.0,96,29.65,-9999.0,East,13.8,-,N/A,,Unknown,80,2013-02-21 14:56:00
8:56 AM,19.9,18.0,92,29.70,-9999.0,NE,17.3,-,0.01,,Unknown,50,2013-02-21 15:56:00
9:56 AM,18.0,16.0,92,29.74,-9999.0,NNE,18.4,-,N/A,,Unknown,30,2013-02-21 16:56:00
10:56 AM,19.0,16.0,88,29.76,-9999.0,North,15.0,-,N/A,,Unknown,10,2013-02-21 17:56:00
11:56 AM,21.0,17.1,85,29.77,-9999.0,North,19.6,-,N/A,,Unknown,360,2013-02-21 18:56:00
12:56 PM,21.9,17.1,82,29.77,-9999.0,North,18.4,-,N/A,,Unknown,350,2013-02-21 19:56:00
1:56 PM,21.9,18.0,85,29.76,-9999.0,North,20.7,-,N/A,,Unknown,10,2013-02-21 20:56:00
2:56 PM,23.0,18.0,81,29.79,-9999.0,North,18.4,-,N/A,,Unknown,360,2013-02-21 21:56:00
3:56 PM,23.0,18.0,81,29.81,-9999.0,North,15.0,-,N/A,,Unknown,360,2013-02-21 22:56:00
4:56 PM,21.9,18.0,85,29.82,-9999.0,North,8.1,-,N/A,,Unknown,360,2013-02-21 23:56:00
5:56 PM,21.0,18.0,88,29.85,-9999.0,North,17.3,-,N/A,,Unknown,360,2013-02-22 00:56:00
6:56 PM,19.9,16.0,85,29.86,-9999.0,North,16.1,-,N/A,,Unknown,350,2013-02-22 01:56:00
7:56 PM,19.0,15.1,85,29.91,-9999.0,NNW,11.5,-,N/A,,Unknown,330,2013-02-22 02:56:00
8:56 PM,19.9,15.1,81,29.96,-9999.0,NNW,13.8,-,N/A,,Unknown,340,2013-02-22 03:56:00
9:56 PM,19.0,15.1,85,29.97,-9999.0,North,12.7,-,N/A,,Unknown,350,2013-02-22 04:56:00
10:56 PM,18.0,14.0,84,29.98,-9999.0,NW,10.4,-,N/A,,Unknown,310,2013-02-22 05:56:00
11:56 PM,16.0,12.0,84,29.98,-9999.0,NW,12.7,-,N/A,,Unknown,310,2013-02-22 06:56:00